Change the Weather History Date:

Monday, September 19, 2011

  Actual Average Record
Temperature  
Mean Temperature 72 °F 74 °F  
Max Temperature 75 °F 84 °F 98 °F (2010)
Min Temperature 68 °F 64 °F 46 °F (1901)
Degree Days  
Heating Degree Days 0 0  
Month to date heating degree days 0 0  
Since 1 July heating degree days 0 0  
Cooling Degree Days 7 9  
Month to date cooling degree days 187 233  
Year to date cooling degree days 2389 2068  
Growing Degree Days 22 (Base 50)    
Moisture  
Dew Point 67 °F    
Average Humidity 88    
Maximum Humidity 97    
Minimum Humidity 79    
Precipitation  
Precipitation 1.02 in 0.10 in 3.82 in (2002)
Month to date precipitation 1.24 1.84  
Year to date precipitation 39.50 37.22  
Snow  
Snow 0.00 in 0.00 in - ()
Month to date snowfall 0.0  
Since 1 July snowfall 0.0  
Since 1 September snowfall 0.0  
Snow Depth -    
Sea Level Pressure  
Sea Level Pressure 29.99 in    
Wind  
Wind Speed 5 mph (SSE)    
Max Wind Speed 23 mph    
Max Gust Speed 30 mph    
Visibility 8 miles    
Events Rain , Thunderstorm    
T = Trace of Precipitation, MM = Missing Value Source: NWS Daily Summary

Daily Weather History Graph

Daily Weather History Graph

Search for Another Location

Airport or City:

Trip Planner

Search our weather history database for the weather conditions in past years. The results will help you decide how hot, cold, wet, or windy it might be!

Date:

Astronomy

Sep. 19, 2011 Rise Set
Actual Time 6:45 AM CDT 7:01 PM CDT
Civil Twilight 6:20 AM CDT 7:26 PM CDT
Nautical Twilight 5:50 AM CDT 7:56 PM CDT
Astronomical Twilight 5:20 AM CDT 8:26 PM CDT
Moon 11:24 PM CDT (9/19) 1:19 PM CDT (9/19)
Length of Visible Light 13h 06m
Length of Day
12h 15m
Waning Gibbous, 58% of the Moon is Illuminated
Sep 19
Waning Gibbous
Sep 20
Last Quarter
Sep 27
New
Oct 3
First Quarter
Oct 11
Full

Hourly Weather History & Observations

Time (CDT) Temp. Dew Point Humidity Pressure Visibility Wind Dir Wind Speed Gust Speed Precip Events Conditions
12:46 AM 75.2 °F 69.8 °F 83% 29.99 in 10.0 mi South 16.1 mph - N/A Thunderstorm Thunderstorm
12:54 AM 75.0 °F 69.1 °F 82% 29.98 in 10.0 mi South 15.0 mph - N/A Thunderstorm Thunderstorm
1:54 AM 73.0 °F 69.1 °F 87% 29.99 in 4.0 mi South 11.5 mph 19.6 mph 0.04 in Rain , Thunderstorm Thunderstorms and Rain
1:59 AM 71.6 °F 69.8 °F 94% 30.00 in 2.0 mi SW 20.7 mph 29.9 mph 0.03 in Rain , Thunderstorm Heavy Thunderstorms and Rain
2:05 AM 69.8 °F 66.2 °F 88% 30.00 in 1.8 mi SW 15.0 mph 29.9 mph N/A Rain , Thunderstorm Heavy Thunderstorms and Rain
2:12 AM 69.8 °F 66.2 °F 88% 29.99 in 3.0 mi SSW 9.2 mph 21.9 mph N/A Rain , Thunderstorm Heavy Thunderstorms and Rain
2:47 AM 69.8 °F 66.2 °F 88% 29.98 in 4.0 mi East 4.6 mph - 0.52 in Rain , Thunderstorm Thunderstorms and Rain
2:54 AM 70.0 °F 68.0 °F 93% 29.96 in 10.0 mi East 5.8 mph - 0.53 in Rain , Thunderstorm Light Thunderstorms and Rain
3:15 AM 73.4 °F 69.8 °F 88% 29.97 in 4.0 mi SSW 6.9 mph - 0.01 in Rain Light Rain
3:48 AM 73.4 °F 69.8 °F 88% 29.98 in 8.0 mi SSW 8.1 mph - 0.01 in Rain Light Rain
3:54 AM 73.0 °F 70.0 °F 90% 29.96 in 9.0 mi SW 6.9 mph - 0.01 in   Overcast
4:01 AM 73.4 °F 69.8 °F 88% 29.98 in 7.0 mi SSW 5.8 mph - N/A   Overcast
4:24 AM 69.8 °F 66.2 °F 88% 29.99 in 3.0 mi Variable 4.6 mph - 0.12 in Rain Rain
4:54 AM 69.1 °F 66.9 °F 93% 29.99 in 9.0 mi South 6.9 mph - 0.20 in Rain Rain
5:54 AM 69.1 °F 66.0 °F 90% 29.97 in 10.0 mi SSE 4.6 mph - 0.04 in   Overcast
6:54 AM 69.1 °F 66.0 °F 90% 30.00 in 10.0 mi Calm Calm - N/A   Mostly Cloudy
7:54 AM 70.0 °F 66.0 °F 87% 30.00 in 10.0 mi Calm Calm - N/A   Mostly Cloudy
8:54 AM 71.1 °F 66.9 °F 87% 30.00 in 9.0 mi SSE 4.6 mph - N/A   Overcast
9:16 AM 69.8 °F 66.2 °F 88% 30.00 in 10.0 mi SSW 4.6 mph - 0.00 in Rain Light Rain
9:54 AM 70.0 °F 66.9 °F 90% 30.00 in 5.0 mi SW 4.6 mph - 0.02 in Rain Light Rain
10:02 AM 69.8 °F 66.2 °F 88% 30.01 in 2.0 mi SW 3.5 mph - 0.02 in Rain Rain
10:54 AM 71.1 °F 68.0 °F 90% 30.01 in 2.0 mi South 5.8 mph - 0.15 in Rain Light Rain
11:18 AM 69.8 °F 68.0 °F 94% 30.02 in 10.0 mi West 3.5 mph - 0.01 in Rain Light Rain
11:43 AM 69.8 °F 68.0 °F 94% 30.02 in 6.0 mi Calm Calm - 0.02 in Rain Rain
11:54 AM 71.1 °F 66.9 °F 87% 30.00 in 5.0 mi Calm Calm - 0.03 in Rain Light Rain
12:24 PM 71.6 °F 68.0 °F 88% 30.01 in 10.0 mi Calm Calm - 0.00 in   Overcast
12:54 PM 71.6 °F 68.0 °F 88% 30.01 in 10.0 mi SE 6.9 mph - N/A   Overcast
1:08 PM 71.6 °F 66.2 °F 83% 30.01 in 8.0 mi SE 5.8 mph - 0.00 in Rain Light Rain
1:17 PM 71.6 °F 66.2 °F 83% 30.00 in 10.0 mi SE 6.9 mph - 0.00 in Rain Light Rain
1:33 PM 69.8 °F 66.2 °F 88% 29.99 in 10.0 mi SE 5.8 mph - 0.00 in Rain Light Rain
1:54 PM 70.0 °F 66.9 °F 90% 29.99 in 10.0 mi SSE 6.9 mph - 0.00 in   Overcast
2:33 PM 71.6 °F 66.2 °F 83% 29.99 in 10.0 mi East 9.2 mph - N/A   Overcast
2:50 PM 71.6 °F 66.2 °F 83% 29.98 in 10.0 mi East 5.8 mph - N/A   Overcast
2:54 PM 72.0 °F 66.9 °F 84% 29.97 in 10.0 mi East 6.9 mph - N/A   Overcast
3:20 PM 73.4 °F 66.2 °F 78% 29.98 in 10.0 mi ESE 4.6 mph - N/A   Overcast
3:46 PM 71.6 °F 66.2 °F 83% 29.97 in 10.0 mi SE 4.6 mph - N/A   Overcast
3:54 PM 72.0 °F 66.0 °F 81% 29.96 in 10.0 mi Calm Calm - N/A   Overcast
4:11 PM 71.6 °F 66.2 °F 83% 29.97 in 10.0 mi SSE 5.8 mph - N/A   Overcast
4:30 PM 73.4 °F 66.2 °F 78% 29.97 in 10.0 mi Calm Calm - N/A   Overcast
4:54 PM 73.9 °F 66.0 °F 76% 29.96 in 10.0 mi Calm Calm - N/A   Overcast
5:54 PM 73.9 °F 66.0 °F 76% 29.95 in 10.0 mi SSE 5.8 mph - N/A   Mostly Cloudy
6:54 PM 73.0 °F 66.0 °F 79% 29.97 in 10.0 mi NE 4.6 mph - N/A   Scattered Clouds
7:54 PM 71.1 °F 66.0 °F 84% 29.97 in 10.0 mi ENE 3.5 mph - N/A   Scattered Clouds
8:54 PM 71.1 °F 66.9 °F 87% 30.00 in 10.0 mi East 4.6 mph - N/A   Overcast
9:54 PM 70.0 °F 66.0 °F 87% 30.01 in 10.0 mi East 6.9 mph - N/A   Overcast
10:54 PM 70.0 °F 64.9 °F 84% 30.00 in 10.0 mi ENE 3.5 mph - N/A   Overcast
11:15 PM 69.8 °F 64.4 °F 83% 30.01 in 10.0 mi Variable 3.5 mph - N/A   Overcast
11:54 PM 70.0 °F 64.9 °F 84% 30.00 in 10.0 mi Calm Calm - N/A   Overcast